Weather in Mogocha

Russia / Zabaykalsky Krai     53°44′10″N   119°45′57″E
temp.,
°C
wind,
m/s
gust,
m/s
humid.,
%
clouds,
%
prec.,
mm/h
press.,
hPa
HPBL,
m
7 may, fri
fri700:00+1n218521 0.0 100513
03:00−1nnw11875 0.0 100612
06:00−1nnw22835 0.0 100638
09:00+6ne47475 0.0 10031318
12:00+8ne5642100 0.1 10022051
15:00+9nne5737100 0.3 10012385
18:00+8nne584687 0.2 10031958
21:00+3n3770100 0.3 1006225
8 may, sat
sat800:00+3n41065100 0.0 1007625
03:00+1nnw2671100 0.0 1008233
06:00+1nnw3107399 0.0 1008733
09:00+4n485692 0.0 10071459
12:00+6nne5849100 0.3 10061864
15:00+8nne4642100 0.9 10052112
18:00+7nne564456 0.2 10061795
21:00+2n22705 0.3 100927
9 may, sun
sun900:00−1nw22865 0.0 101030
03:00−2nw229132 0.0 101034
06:00−2nnw238937 0.0 101180
09:00+5n3558100 0.0 10091150
12:00+7n4546100 0.6 10071833
15:00+9n3537100 0.7 10072288
18:00+8nne3544100 0.0 10071659
21:00+3n227472 0.1 101040
10 may, mon
mon1000:000nnw22946 0.0 101220
03:00−1nnw219614 0.0 101419
06:000nw1286100 0.0 101449
09:00+4n2367100 0.0 1013745
12:00+6nne2352100 0.1 10131504
15:00+7ene2250100 0.1 10121313
18:00+8e224898 0.0 10121292
21:00+3e117156 0.0 101310
11 may, tue
tue1100:000n118629 0.0 101411
03:000n119378 0.0 101413
06:00+1n229195 0.0 101360
09:00+5ene358099 0.1 1012738
12:00+9e4659100 0.3 10091492
15:00+10e5654100 0.6 10081850
18:00+9e4655100 0.1 10081409
21:00+6ene3976100 0.1 1010600